This is the latest recevied weather packets stored in our database for station/object K7CTM. If no packets are shown the sender has not sent any weather packets the latest 10 day(s).
| Time | Temp. | Humidity | Pressure | Rain* | Wind** | Luminosity | Snow |
|---|---|---|---|---|---|---|---|
| 1787854221 | 29.44° C | 30% | 1028.6 hPa | 0 mm | - | 440 W/m² | - |
| 1787853915 | 29.44° C | 31% | 1028.5 hPa | 0 mm | - | 459 W/m² | - |
| 1787853615 | 30° C | 30% | 1028.6 hPa | 0 mm | - | 465 W/m² | - |
| 1787853314 | 28.33° C | 31% | 1028.7 hPa | 0 mm | - | 484 W/m² | - |
| 1787853009 | 28.33° C | 33% | 1028.8 hPa | 0 mm | - | 518 W/m² | - |
| 1787852703 | 28.33° C | 32% | 1028.7 hPa | 0 mm | - | 511 W/m² | - |
| 1787852402 | 28.33° C | 32% | 1028.8 hPa | 0 mm | - | 505 W/m² | - |
| 1787852101 | 27.78° C | 33% | 1028.9 hPa | 0 mm | - | 532 W/m² | - |
| 1787851796 | 27.78° C | 32% | 1028.9 hPa | 0 mm | - | 527 W/m² | - |
| 1787851491 | 27.78° C | 32% | 1029.1 hPa | 0 mm | - | 542 W/m² | - |
| 1787851186 | 27.22° C | 33% | 1029.1 hPa | 0 mm | - | 561 W/m² | - |
| 1787850882 | 27.22° C | 32% | 1029.2 hPa | 0 mm | - | 507 W/m² | - |
| 1787850578 | 27.22° C | 33% | 1029.1 hPa | 0 mm | - | 519 W/m² | - |
| 1787850277 | 26.11° C | 34% | 1029.4 hPa | 0 mm | - | 503 W/m² | - |
| 1787849977 | 25.56° C | 35% | 1029.6 hPa | 0 mm | - | 555 W/m² | - |
| 1787849672 | 25° C | 34% | 1029.7 hPa | 0 mm | - | 590 W/m² | - |
| 1787849367 | 25° C | 34% | 1029.7 hPa | 0 mm | - | 525 W/m² | - |
| 1787849066 | 24.44° C | 38% | 1029.6 hPa | 0 mm | - | 532 W/m² | - |
| 1787848761 | 23.89° C | 38% | 1029.8 hPa | 0 mm | - | 460 W/m² | - |
| 1787848461 | 23.89° C | 38% | 1029.8 hPa | 0 mm | - | 520 W/m² | - |
| 1787848156 | 23.89° C | 39% | 1029.7 hPa | 0 mm | - | 537 W/m² | - |
| 1787847856 | 22.78° C | 42% | 1029.9 hPa | 0 mm | - | 544 W/m² | - |
| 1787847551 | 22.78° C | 43% | 1029.8 hPa | 0 mm | - | 492 W/m² | - |
| 1787847246 | 22.78° C | 42% | 1029.7 hPa | 0 mm | - | 425 W/m² | - |
| 1787846943 | 22.78° C | 43% | 1029.8 hPa | 0 mm | - | 505 W/m² | - |
* Rain latest hour (hover to see other rain measurements)
** Current wind speed in m/s (hover to see current wind gust speed)